Find Local Weather

World > North America > United States > Florida

San Mateo, Florida Regional Weather

Lat: 29.61N, Lon: 81.58W
Wx Zone: FLZ037
Feedback
Expires:201901230400;;779690
ASUS42 KTBW 230318
RWRFL 
FLORIDA REGIONAL WEATHER ROUNDUP
NATIONAL WEATHER SERVICE TAMPA BAY RUSKIN FL
1000 PM EST TUE JAN 22 2019

NOTE: "FAIR" INDICATES FEW OR NO CLOUDS BELOW 12,000 FEET WITH NO
SIGNIFICANT WEATHER AND/OR OBSTRUCTIONS TO VISIBILITY.


FLZ011-016>038-118-127-128-134-139-239-230400-
NORTH FLORIDA
  
CITY           SKY/WX    TMP DP  RH WIND       PRES   REMARKS
MARIANNA       CLOUDY    61  50  67 E9        30.26F                  
TALLAHASSEE    CLOUDY    61  50  67 SE12      30.30S                  
PERRY          CLOUDY    63  52  67 SE12      30.34S                  
LIVE OAK       CLOUDY    54  52  94 NE5       30.36S                  
CROSS CITY     FAIR      60  54  79 E7        30.34F                  
LAKE CITY      MOCLDY    55  50  82 CALM      30.36S                  
GAINESVILLE    CLOUDY    62  53  72 CALM      30.38S                  
WILLISTON        N/A    N/A N/A N/A MISG        N/A                   
PALATKA        CLOUDY   N/A N/A N/A CALM      30.37S                  
MAYPORT NAS    CLOUDY    63  57  81 SE9       30.37F                  
JACKSONVILLE   MOCLDY    55  53  93 NE3       30.36F                  
JAX NAS        MOCLDY    61  55  81 E10       30.37F                  
JAX CECIL      CLEAR     52  48  87 VRB3      30.37F                  
ST AUGUSTINE   CLOUDY    63  57  81 SE13      30.38S                  
PALM COAST     FAIR      62  54  74 SE7       30.37S                  

STATION/POSITION SKY/WX   TEMP    WIND        PRES    WAVE   SWELL
                          AIR SEA DIR/SP/G            HT/PER HT/PER
                          (F)     (DEG/KT/KT) (MB)    (FT/S) (FT/S)
SHELL POINT      NOT AVBL
KEATON BEACH               62      90/ 12/ 14 1026.9F
CEDAR KEY                  60      80/ 11/ 12 1027.5S
FERNANDINA                 62 56              1029.4F
30.7N   81.3W                 57                N/A     5/ 6   2/11
MAYPORT                    63 59  120/  6/  9 1028.7F
31.4N   80.9W              61 57  120/ 12/ 14 1029.4F   5/ 6   3/ 6
ST AUGUSTINE               63 60  130/ 14/ 15 1028.5S

$$

SKY/WX - Weather  TMP - Temperature  DP - Dew Point  RH - Relative Humidity
WIND - Wind Direction/Speed PRES - Barometric Pressure